Probability
26 25 24 23 23 21 18 17 19 17 15 19 25 26 25 22 17 20 20 12 4 1 0 0 0 0 0 0 0 1 2 2 1 2 2 2 1 0
29 29 28 27 25 23 20 19 20 19 17 19 25 27 25 19 17 21 23 14 5 2 0 0 0 0 0 0 0 0 1 1 0 1 1 1 0 0
34 33 33 31 29 26 23 22 23 23 20 21 26 29 27 24 23 25 24 18 9 3 0 0 0 0 0 0 0 0 0 0 0 0 0 0 0 0
34 34 34 33 32 30 28 27 27 26 23 22 25 28 28 29 29 27 23 18 12 4 0 0 0 0 0 0 0 0 0 0 0 0 0 0 0 0
33 32 32 31 32 31 30 29 29 28 25 21 21 23 27 30 30 26 21 17 11 4 0 0 0 0 0 0 0 0 0 0 0 0 0 0 0 0
30 30 30 29 29 27 25 27 27 26 25 24 22 21 24 28 28 24 18 15 12 6 2 1 1 0 0 0 0 0 0 0 0 0 0 0 0 0
26 28 29 27 24 20 18 20 21 21 23 25 27 24 23 26 26 21 16 14 12 8 3 2 2 1 1 1 0 0 0 0 0 0 0 0 0 0
26 25 24 23 21 18 15 13 12 11 14 21 27 25 23 25 25 21 16 13 12 9 4 1 2 2 2 2 1 0 0 0 0 0 0 0 0 0
27 24 19 17 18 20 17 12 9 8 9 16 21 20 19 22 24 22 17 14 12 9 6 3 2 2 3 2 1 0 0 0 0 0 0 0 0 0
26 23 19 17 17 20 20 18 16 13 10 12 16 15 12 15 19 20 18 16 13 10 10 8 6 4 3 2 1 0 0 0 0 0 0 0 0 0
24 22 19 17 15 16 20 23 22 19 14 12 11 9 8 9 12 16 20 18 14 11 11 11 10 7 4 2 0 0 0 0 0 0 0 0 0 0
23 20 15 11 9 11 17 22 23 21 18 15 11 9 10 11 12 17 21 19 15 12 11 10 8 7 5 3 1 0 0 0 0 0 0 0 0 0
21 19 12 6 4 5 10 15 17 17 16 16 13 12 16 18 19 21 22 18 14 13 10 7 6 5 4 3 2 1 1 0 0 0 0 0 0 0
18 16 10 4 1 1 4 6 8 8 10 12 11 12 16 19 20 21 21 18 14 12 10 7 6 5 4 3 3 3 2 1 0 0 0 0 0 0
12 9 5 2 0 0 1 1 1 3 7 9 8 9 11 14 15 17 19 18 15 12 10 9 7 6 5 4 3 3 3 2 1 1 0 0 0 0
6 5 4 2 1 1 2 2 1 3 6 8 7 6 8 10 12 13 14 15 14 12 11 9 8 6 6 5 4 3 3 3 3 2 1 1 1 0
6 6 6 5 3 4 5 4 2 2 3 4 4 4 5 7 9 10 12 13 13 12 11 9 7 5 5 5 5 4 3 3 3 3 3 2 2 1
5 6 7 6 5 5 5 3 1 1 1 1 2 3 4 6 8 9 10 11 12 12 11 8 6 5 3 3 3 4 3 3 3 3 3 3 3 3
2 3 5 4 4 3 2 1 1 1 1 2 4 4 4 6 7 9 9 9 10 10 9 8 7 6 3 1 1 2 2 2 2 3 3 3 3 3
1 2 4 4 3 3 3 4 4 4 5 6 6 5 4 5 6 7 8 8 7 7 8 8 8 6 3 1 0 0 1 1 1 1 2 3 3 3
3 4 5 5 5 6 7 8 7 7 8 9 8 6 5 4 4 6 7 7 6 6 8 9 8 6 4 2 1 0 0 0 0 0 1 2 3 3
6 7 8 8 8 8 8 7 6 7 7 8 7 6 4 4 4 5 7 7 6 6 7 7 7 7 5 3 1 0 0 0 0 0 0 1 1 2
6 7 8 9 8 8 7 5 4 5 5 5 5 3 2 4 4 5 6 7 6 5 6 6 7 6 5 3 2 1 0 0 0 0 0 0 0 1
Wind_Speed
3 3 3 3 3 3 2 2 2 3 3 2 1 1 1 1 5 4 4 8 9 10 9 9 8 8 7 7 6 6 5 5 5 5 5 5 4 4
3 3 3 3 3 3 2 2 2 2 3 2 2 1 1 2 4 3 3 8 9 10 10 9 9 8 8 7 7 6 6 6 5 5 4 4 3 3
3 3 3 4 3 3 3 2 2 2 4 3 2 2 1 1 1 2 3 4 5 9 10 10 9 9 9 8 7 7 7 6 6 5 5 5 4 3
3 3 4 4 4 3 2 3 3 3 3 4 3 2 2 1 3 3 3 3 3 7 10 10 10 9 9 9 8 8 7 7 6 6 6 6 5 4
3 3 3 3 4 3 3 3 3 4 2 3 3 2 2 2 2 3 3 2 3 4 8 9 9 9 8 9 8 8 7 7 6 6 5 5 5 5
3 3 3 3 4 4 4 3 3 3 3 3 3 3 2 2 1 2 2 1 1 2 3 4 7 9 8 9 8 8 8 7 6 5 5 5 5 4
3 3 3 3 4 4 4 3 3 3 3 2 2 2 2 2 2 2 2 2 1 1 1 2 3 4 5 8 8 9 8 7 7 6 5 5 5 5
4 4 4 4 5 5 5 5 4 4 3 3 3 2 3 3 1 2 2 2 2 1 1 2 2 3 4 4 8 9 8 8 7 7 6 6 5 5
4 4 5 5 3 2 4 5 5 6 7 4 4 4 3 3 2 3 3 2 2 2 1 2 2 3 3 4 9 9 9 9 8 7 7 7 6 6
4 4 3 4 4 3 4 4 3 4 5 5 4 4 4 3 3 4 4 3 2 2 1 2 2 2 2 2 8 10 10 9 9 8 8 7 7 7
4 4 3 3 3 4 4 4 4 4 5 4 5 5 6 5 4 2 2 2 2 2 2 2 2 2 2 2 5 9 9 9 9 9 8 8 7 6
3 3 3 2 3 3 3 4 5 4 5 5 4 5 5 5 5 4 3 3 2 2 1 1 1 1 1 1 3 4 4 6 8 9 9 9 8 4
4 3 2 3 4 5 5 4 6 5 5 4 4 4 3 2 3 3 3 2 3 3 1 1 1 1 1 1 2 3 4 3 4 5 7 9 8 6
5 4 3 4 5 6 6 6 7 6 4 4 3 3 2 2 2 2 2 3 3 3 2 2 2 2 2 2 2 2 2 2 3 3 3 6 7 8
4 6 5 6 6 5 8 8 6 4 4 3 3 3 2 2 1 1 2 2 3 2 2 2 2 2 2 3 2 2 2 2 2 2 3 3 3 4
4 6 7 8 7 6 5 4 4 4 3 3 3 2 2 1 1 1 1 1 1 1 1 1 2 2 2 3 2 2 2 3 3 2 2 2 2 3
5 5 4 3 3 2 2 2 2 2 2 2 2 2 2 2 2 1 1 2 2 2 2 1 1 1 2 2 2 2 2 2 3 3 2 2 2 2
3 4 4 3 3 3 2 2 2 2 2 2 2 2 2 2 2 2 2 2 2 2 2 2 1 1 1 1 2 3 2 2 2 3 3 2 2 2
3 4 3 3 3 3 2 2 2 2 2 2 2 2 2 2 2 2 2 2 2 2 2 1 2 2 2 3 2 3 3 2 2 2 3 3 2 2
3 3 2 2 2 2 2 2 2 2 2 2 2 2 2 2 3 2 1 2 2 2 2 2 2 2 3 3 2 2 4 4 3 3 2 1 1 2
3 2 2 2 2 2 2 2 2 2 2 2 2 2 2 2 2 2 2 2 2 2 2 2 2 3 2 1 2 2 2 4 4 3 3 2 2 2
3 3 2 2 2 2 2 2 2 2 2 2 2 2 2 2 3 2 2 2 2 2 2 2 2 2 2 2 3 2 2 1 2 3 2 3 3 4
3 3 2 2 2 2 2 2 3 2 2 2 2 2 3 3 3 2 2 2 2 2 2 2 2 2 2 2 2 2 2 2 2 2 2 3 5 6
Wind_Direction
266 268 265 274 281 277 275 275 273 285 289 282 286 204 159 131 156 189 178 186 191 194 196 198 200 202 207 209 208 207 210 217 218 220 224 227 232 239
264 278 279 280 285 288 290 286 277 276 284 291 272 261 228 204 175 193 189 186 195 199 199 197 198 201 202 201 199 200 203 207 212 207 201 204 208 216
275 273 273 276 285 297 302 298 286 274 273 283 284 264 276 229 178 214 189 188 196 202 198 197 199 201 201 202 201 201 200 201 203 203 199 203 207 213
274 279 280 279 280 277 291 293 288 275 266 270 277 270 261 233 208 224 223 209 199 199 196 195 197 199 199 199 199 200 200 201 200 201 202 202 205 209
287 287 290 293 293 292 283 283 282 286 282 279 282 281 270 255 224 236 250 245 225 183 188 194 198 199 198 194 194 195 198 198 198 201 204 205 208 209
295 290 293 289 290 291 287 282 280 287 286 277 274 278 279 271 238 244 267 268 249 193 179 182 197 201 201 196 195 192 192 192 194 200 205 207 205 206
288 282 281 281 280 279 285 290 294 288 284 277 272 272 279 289 271 255 262 269 262 165 159 186 186 194 199 202 197 191 192 194 196 198 202 206 207 207
298 296 287 266 271 265 268 277 277 279 285 281 275 276 275 273 272 271 259 262 266 210 196 225 197 199 198 187 185 186 191 197 201 203 202 204 207 211
293 295 298 311 309 296 283 270 261 254 248 254 268 272 277 280 272 261 253 245 254 248 228 241 216 211 202 179 172 181 189 198 202 206 208 209 211 214
286 285 283 299 317 318 299 291 280 269 256 244 252 259 264 270 262 253 247 237 239 239 205 244 241 223 199 175 182 184 192 198 202 206 209 211 213 218
298 313 308 298 325 321 301 299 299 297 292 276 257 257 258 260 259 262 253 236 256 249 224 220 234 232 203 187 191 191 195 198 200 206 211 213 217 220
288 280 290 287 300 305 293 297 294 295 305 306 291 268 255 251 244 226 228 241 256 256 225 219 236 226 237 214 183 186 198 209 210 214 215 216 212 212
296 290 291 290 274 267 270 272 275 283 286 282 280 273 258 250 241 225 217 223 249 264 237 209 250 233 223 230 212 196 190 192 201 217 219 220 213 204
292 298 304 297 283 271 265 270 277 282 273 270 269 269 269 262 260 238 214 213 224 228 222 206 237 235 238 236 228 199 196 201 193 197 205 210 216 219
291 301 298 286 283 268 255 260 265 261 262 267 268 265 261 259 256 251 236 231 229 240 228 208 212 232 234 236 214 193 200 212 193 196 200 196 200 201
295 299 288 274 267 267 271 258 246 250 258 266 274 273 264 262 257 245 258 254 243 245 248 203 204 208 237 243 221 210 201 203 200 200 191 201 208 210
312 292 284 283 284 279 276 275 277 280 275 279 280 282 282 279 272 255 257 255 246 243 236 227 215 202 208 220 223 222 216 212 196 184 176 195 198 195
303 290 294 299 302 304 304 305 305 307 306 299 292 287 285 281 280 284 281 275 265 252 231 208 218 245 266 279 224 226 222 219 191 167 170 184 203 191
270 276 288 301 305 308 310 316 317 318 316 316 308 300 304 302 294 288 285 286 290 279 252 216 216 225 237 253 264 222 217 222 194 179 188 194 199 185
269 286 299 299 301 308 313 314 311 312 312 309 306 305 314 311 302 298 312 316 295 285 277 257 232 225 226 231 243 248 211 202 196 195 198 190 156 156
289 296 306 308 312 317 319 318 312 305 306 305 307 307 310 307 304 311 317 316 304 288 277 279 271 251 234 218 234 244 223 202 193 189 191 193 199 203
297 300 309 319 320 312 308 301 301 309 308 304 310 310 317 318 303 299 317 321 315 310 307 294 281 266 247 232 229 236 233 204 193 204 218 218 207 206
290 289 287 300 308 312 315 310 308 316 319 313 304 298 297 300 304 313 317 309 306 308 308 302 298 286 251 225 225 246 239 224 193 190 244 261 224 217